QPF
0.00 0.01 0.02 0.05 0.06 0.06 0.05 0.04 0.04 0.04 0.03 0.02 0.01 0.01 0.01 0.00 0.00 0.00 0.00 0.00 0.00 0.00 0.00 0.00 0.00 0.00 0.00 0.00 0.00 0.00 0.00 0.00 0.00 0.00 0.00 0.00 0.00 0.00 0.00 0.00 0.00 0.01 0.01 0.01
0.00 0.01 0.02 0.05 0.08 0.06 0.04 0.03 0.02 0.02 0.01 0.01 0.00 0.00 0.00 0.00 0.00 0.00 0.00 0.00 0.00 0.00 0.00 0.00 0.00 0.00 0.00 0.00 0.00 0.00 0.00 0.00 0.00 0.00 0.00 0.00 0.00 0.00 0.00 0.00 0.00 0.00 0.01 0.01
0.00 0.00 0.01 0.04 0.05 0.03 0.02 0.01 0.01 0.01 0.00 0.00 0.00 0.00 0.00 0.00 0.00 0.00 0.00 0.00 0.00 0.00 0.00 0.00 0.00 0.00 0.00 0.00 0.00 0.00 0.00 0.00 0.00 0.00 0.00 0.00 0.00 0.00 0.00 0.00 0.00 0.00 0.00 0.00
0.00 0.00 0.03 0.04 0.02 0.01 0.00 0.00 0.00 0.00 0.00 0.00 0.00 0.00 0.00 0.00 0.00 0.00 0.00 0.00 0.00 0.00 0.00 0.00 0.00 0.00 0.00 0.00 0.00 0.00 0.00 0.00 0.00 0.00 0.00 0.00 0.00 0.00 0.00 0.00 0.00 0.00 0.00 0.00
0.00 0.00 0.03 0.02 0.01 0.00 0.00 0.00 0.00 0.00 0.00 0.00 0.00 0.00 0.00 0.00 0.00 0.00 0.00 0.00 0.00 0.00 0.00 0.00 0.00 0.00 0.00 0.00 0.00 0.00 0.00 0.00 0.00 0.00 0.00 0.00 0.00 0.00 0.00 0.01 0.00 0.00 0.00 0.00
0.00 0.01 0.02 0.01 0.00 0.00 0.00 0.00 0.00 0.00 0.00 0.00 0.00 0.00 0.00 0.00 0.00 0.00 0.00 0.00 0.00 0.00 0.00 0.00 0.00 0.00 0.00 0.00 0.00 0.00 0.00 0.00 0.00 0.01 0.01 0.01 0.00 0.00 0.01 0.01 0.00 0.00 0.00 0.00
0.00 0.00 0.01 0.00 0.00 0.00 0.00 0.00 0.00 0.00 0.00 0.00 0.00 0.00 0.00 0.00 0.00 0.00 0.00 0.00 0.00 0.00 0.00 0.00 0.00 0.00 0.00 0.01 0.01 0.01 0.01 0.01 0.01 0.01 0.01 0.01 0.01 0.01 0.01 0.01 0.00 0.00 0.00 0.00
0.00 0.00 0.00 0.00 0.00 0.00 0.00 0.00 0.00 0.00 0.00 0.00 0.00 0.00 0.00 0.00 0.00 0.00 0.00 0.00 0.00 0.00 0.00 0.00 0.00 0.01 0.01 0.01 0.01 0.01 0.02 0.02 0.01 0.01 0.01 0.01 0.01 0.01 0.02 0.02 0.01 0.01 0.01 0.01
0.00 0.00 0.00 0.00 0.00 0.00 0.00 0.00 0.00 0.00 0.00 0.00 0.00 0.00 0.00 0.00 0.00 0.00 0.00 0.00 0.00 0.00 0.00 0.00 0.00 0.01 0.02 0.02 0.02 0.03 0.03 0.02 0.01 0.01 0.01 0.01 0.01 0.01 0.02 0.02 0.02 0.01 0.02 0.02
0.00 0.00 0.00 0.00 0.00 0.00 0.00 0.00 0.00 0.00 0.00 0.00 0.00 0.00 0.00 0.00 0.00 0.00 0.00 0.00 0.00 0.00 0.01 0.01 0.01 0.01 0.02 0.02 0.03 0.04 0.03 0.02 0.02 0.02 0.02 0.01 0.02 0.02 0.02 0.02 0.02 0.02 0.03 0.03
0.00 0.00 0.00 0.00 0.00 0.00 0.00 0.00 0.00 0.00 0.00 0.00 0.00 0.00 0.00 0.00 0.00 0.00 0.00 0.00 0.00 0.01 0.01 0.01 0.01 0.01 0.02 0.04 0.05 0.05 0.04 0.03 0.03 0.03 0.03 0.02 0.02 0.02 0.02 0.02 0.02 0.01 0.02 0.02
0.00 0.00 0.00 0.00 0.00 0.00 0.00 0.00 0.00 0.00 0.00 0.00 0.00 0.00 0.00 0.00 0.00 0.00 0.00 0.00 0.01 0.01 0.01 0.02 0.02 0.03 0.04 0.06 0.07 0.08 0.06 0.05 0.04 0.04 0.04 0.03 0.03 0.02 0.02 0.01 0.01 0.00 0.01 0.01
0.00 0.00 0.00 0.00 0.00 0.00 0.00 0.00 0.00 0.00 0.00 0.00 0.00 0.00 0.00 0.00 0.00 0.00 0.01 0.01 0.02 0.02 0.02 0.02 0.03 0.05 0.07 0.09 0.08 0.08 0.07 0.05 0.05 0.04 0.04 0.04 0.03 0.02 0.02 0.01 0.01 0.00 0.00 0.00
0.00 0.00 0.00 0.00 0.00 0.00 0.00 0.00 0.00 0.00 0.00 0.00 0.00 0.00 0.00 0.00 0.00 0.00 0.01 0.01 0.02 0.02 0.02 0.03 0.05 0.07 0.08 0.09 0.07 0.07 0.06 0.05 0.05 0.04 0.03 0.03 0.03 0.03 0.03 0.02 0.02 0.01 0.01 0.01
0.00 0.00 0.00 0.00 0.00 0.00 0.00 0.00 0.00 0.00 0.00 0.00 0.00 0.00 0.00 0.00 0.00 0.01 0.01 0.01 0.01 0.02 0.03 0.05 0.07 0.08 0.07 0.08 0.07 0.07 0.04 0.03 0.03 0.03 0.02 0.02 0.02 0.02 0.02 0.03 0.02 0.02 0.02 0.03
0.00 0.00 0.00 0.00 0.00 0.00 0.00 0.00 0.00 0.00 0.00 0.00 0.00 0.00 0.00 0.00 0.00 0.01 0.01 0.01 0.02 0.03 0.04 0.06 0.08 0.08 0.07 0.07 0.06 0.06 0.04 0.04 0.04 0.03 0.03 0.02 0.02 0.02 0.03 0.03 0.03 0.03 0.04 0.04
0.00 0.00 0.00 0.00 0.00 0.00 0.00 0.00 0.00 0.00 0.00 0.00 0.00 0.00 0.00 0.00 0.01 0.01 0.00 0.01 0.01 0.02 0.04 0.05 0.07 0.07 0.07 0.07 0.06 0.05 0.04 0.04 0.04 0.03 0.02 0.02 0.03 0.04 0.04 0.04 0.04 0.04 0.04 0.04
0.00 0.00 0.00 0.00 0.00 0.00 0.00 0.00 0.00 0.00 0.00 0.00 0.00 0.00 0.00 0.00 0.01 0.01 0.01 0.01 0.02 0.02 0.03 0.03 0.05 0.06 0.06 0.06 0.05 0.05 0.05 0.05 0.04 0.04 0.04 0.04 0.05 0.06 0.06 0.04 0.04 0.04 0.05 0.04
0.00 0.00 0.00 0.00 0.00 0.00 0.00 0.00 0.00 0.00 0.00 0.00 0.00 0.00 0.00 0.00 0.01 0.01 0.01 0.01 0.03 0.04 0.04 0.03 0.04 0.04 0.05 0.06 0.06 0.05 0.06 0.06 0.05 0.05 0.05 0.06 0.07 0.05 0.05 0.05 0.04 0.04 0.03 0.03
0.00 0.00 0.00 0.00 0.00 0.00 0.00 0.00 0.00 0.00 0.00 0.00 0.00 0.00 0.00 0.00 0.00 0.01 0.01 0.02 0.02 0.04 0.05 0.05 0.04 0.05 0.05 0.06 0.06 0.05 0.06 0.06 0.06 0.05 0.05 0.06 0.07 0.06 0.05 0.06 0.06 0.06 0.04 0.03
0.00 0.00 0.00 0.00 0.00 0.00 0.00 0.00 0.00 0.00 0.00 0.00 0.00 0.00 0.00 0.00 0.00 0.01 0.02 0.03 0.02 0.03 0.04 0.05 0.05 0.06 0.06 0.08 0.08 0.07 0.07 0.06 0.06 0.05 0.05 0.06 0.08 0.09 0.07 0.05 0.04 0.03 0.04 0.03
0.00 0.00 0.00 0.00 0.00 0.00 0.00 0.00 0.00 0.00 0.00 0.00 0.00 0.00 0.00 0.01 0.01 0.01 0.02 0.02 0.02 0.04 0.04 0.03 0.04 0.06 0.07 0.07 0.07 0.08 0.08 0.08 0.07 0.07 0.07 0.06 0.07 0.08 0.08 0.06 0.04 0.03 0.03 0.02
0.00 0.00 0.00 0.00 0.00 0.00 0.00 0.00 0.00 0.00 0.00 0.00 0.00 0.00 0.00 0.01 0.01 0.01 0.02 0.02 0.02 0.02 0.03 0.02 0.03 0.05 0.06 0.05 0.05 0.07 0.08 0.09 0.08 0.08 0.08 0.07 0.06 0.05 0.04 0.04 0.04 0.03 0.03 0.02
0.00 0.00 0.00 0.00 0.00 0.00 0.00 0.00 0.00 0.00 0.00 0.00 0.00 0.00 0.00 0.00 0.01 0.01 0.01 0.02 0.02 0.02 0.02 0.02 0.02 0.04 0.05 0.05 0.06 0.08 0.09 0.09 0.08 0.07 0.06 0.06 0.06 0.05 0.04 0.04 0.04 0.04 0.03 0.03
0.00 0.00 0.00 0.00 0.00 0.00 0.00 0.00 0.00 0.00 0.00 0.00 0.00 0.00 0.00 0.00 0.00 0.01 0.01 0.01 0.01 0.02 0.01 0.02 0.02 0.03 0.03 0.04 0.06 0.09 0.10 0.11 0.11 0.09 0.08 0.07 0.07 0.07 0.07 0.06 0.06 0.05 0.05 0.04
0.00 0.00 0.00 0.00 0.00 0.00 0.00 0.00 0.00 0.00 0.00 0.00 0.00 0.00 0.00 0.00 0.00 0.00 0.00 0.01 0.01 0.02 0.01 0.01 0.01 0.02 0.02 0.03 0.04 0.05 0.07 0.09 0.11 0.13 0.12 0.12 0.11 0.11 0.11 0.10 0.09 0.08 0.06 0.05
0.00 0.00 0.00 0.00 0.00 0.00 0.00 0.00 0.00 0.00 0.00 0.00 0.00 0.00 0.00 0.00 0.00 0.01 0.00 0.01 0.01 0.01 0.01 0.01 0.01 0.02 0.01 0.02 0.02 0.03 0.03 0.05 0.06 0.08 0.10 0.11 0.12 0.11 0.11 0.13 0.12 0.09 0.08 0.07
MSLP
1013.89 1014.27 1014.64 1014.99 1015.31 1015.59 1015.81 1015.96 1016.03 1016.01 1015.89 1015.69 1015.41 1015.07 1014.68 1014.26 1013.82 1013.36 1012.88 1012.40 1011.91 1011.41 1010.93 1010.46 1010.02 1009.63 1009.29 1009.00 1008.78 1008.61 1008.50 1008.42 1008.38 1008.35 1008.34 1008.34 1008.34 1008.33 1008.32 1008.28 1008.22 1008.13 1008.00 1007.81
1014.76 1015.20 1015.58 1015.88 1016.10 1016.24 1016.31 1016.29 1016.22 1016.07 1015.87 1015.62 1015.33 1014.98 1014.59 1014.16 1013.69 1013.17 1012.62 1012.04 1011.44 1010.84 1010.27 1009.73 1009.25 1008.83 1008.49 1008.21 1008.00 1007.84 1007.73 1007.64 1007.58 1007.54 1007.51 1007.49 1007.49 1007.49 1007.50 1007.50 1007.47 1007.42 1007.31 1007.15
1015.57 1016.04 1016.41 1016.66 1016.79 1016.81 1016.74 1016.60 1016.39 1016.14 1015.85 1015.54 1015.19 1014.81 1014.39 1013.91 1013.38 1012.80 1012.16 1011.50 1010.82 1010.15 1009.52 1008.95 1008.45 1008.04 1007.71 1007.45 1007.26 1007.11 1006.99 1006.89 1006.80 1006.73 1006.67 1006.63 1006.62 1006.63 1006.65 1006.68 1006.68 1006.66 1006.58 1006.44
1016.30 1016.75 1017.06 1017.25 1017.29 1017.22 1017.04 1016.78 1016.46 1016.12 1015.75 1015.36 1014.96 1014.53 1014.05 1013.53 1012.94 1012.29 1011.59 1010.85 1010.12 1009.41 1008.76 1008.18 1007.70 1007.31 1007.00 1006.77 1006.59 1006.45 1006.31 1006.19 1006.07 1005.96 1005.87 1005.80 1005.78 1005.79 1005.82 1005.87 1005.91 1005.91 1005.86 1005.75
1016.90 1017.27 1017.51 1017.61 1017.57 1017.40 1017.13 1016.78 1016.39 1015.96 1015.53 1015.09 1014.63 1014.15 1013.63 1013.05 1012.41 1011.72 1010.97 1010.21 1009.45 1008.73 1008.08 1007.51 1007.05 1006.68 1006.40 1006.19 1006.02 1005.86 1005.71 1005.56 1005.40 1005.25 1005.12 1005.04 1004.99 1005.00 1005.05 1005.11 1005.18 1005.21 1005.19 1005.09
1017.31 1017.58 1017.72 1017.73 1017.61 1017.36 1017.02 1016.61 1016.15 1015.68 1015.20 1014.71 1014.22 1013.71 1013.15 1012.55 1011.89 1011.17 1010.41 1009.64 1008.87 1008.16 1007.52 1006.97 1006.53 1006.18 1005.91 1005.70 1005.52 1005.35 1005.18 1004.99 1004.79 1004.61 1004.45 1004.33 1004.27 1004.28 1004.33 1004.41 1004.49 1004.54 1004.54 1004.46
1017.53 1017.67 1017.71 1017.63 1017.43 1017.13 1016.74 1016.29 1015.80 1015.30 1014.80 1014.30 1013.79 1013.26 1012.70 1012.09 1011.42 1010.71 1009.95 1009.18 1008.43 1007.73 1007.10 1006.56 1006.13 1005.78 1005.51 1005.29 1005.09 1004.89 1004.68 1004.46 1004.23 1004.01 1003.82 1003.68 1003.61 1003.60 1003.65 1003.74 1003.83 1003.90 1003.91 1003.85
1017.54 1017.57 1017.52 1017.37 1017.11 1016.77 1016.35 1015.89 1015.39 1014.89 1014.39 1013.89 1013.39 1012.87 1012.31 1011.71 1011.06 1010.36 1009.62 1008.86 1008.13 1007.43 1006.80 1006.26 1005.81 1005.44 1005.15 1004.90 1004.67 1004.44 1004.20 1003.95 1003.69 1003.45 1003.24 1003.08 1002.99 1002.97 1003.00 1003.08 1003.17 1003.24 1003.27 1003.22
1017.36 1017.32 1017.20 1017.00 1016.72 1016.36 1015.94 1015.48 1014.99 1014.51 1014.02 1013.54 1013.06 1012.56 1012.03 1011.45 1010.82 1010.13 1009.41 1008.66 1007.92 1007.22 1006.57 1006.01 1005.52 1005.12 1004.79 1004.50 1004.24 1003.98 1003.71 1003.44 1003.17 1002.91 1002.68 1002.51 1002.40 1002.35 1002.37 1002.43 1002.50 1002.57 1002.60 1002.57
1017.04 1016.96 1016.81 1016.60 1016.31 1015.96 1015.56 1015.12 1014.66 1014.20 1013.74 1013.29 1012.83 1012.35 1011.84 1011.28 1010.67 1010.00 1009.28 1008.53 1007.78 1007.05 1006.38 1005.77 1005.24 1004.79 1004.40 1004.07 1003.78 1003.49 1003.21 1002.93 1002.65 1002.39 1002.16 1001.97 1001.84 1001.77 1001.76 1001.79 1001.84 1001.90 1001.93 1001.92
1016.65 1016.57 1016.43 1016.22 1015.96 1015.63 1015.26 1014.85 1014.43 1014.00 1013.57 1013.14 1012.70 1012.24 1011.74 1011.19 1010.59 1009.92 1009.20 1008.43 1007.66 1006.89 1006.17 1005.51 1004.92 1004.41 1003.98 1003.61 1003.29 1002.99 1002.71 1002.43 1002.16 1001.91 1001.68 1001.48 1001.33 1001.24 1001.19 1001.19 1001.23 1001.27 1001.30 1001.32
1016.24 1016.19 1016.08 1015.91 1015.68 1015.40 1015.06 1014.69 1014.30 1013.90 1013.49 1013.07 1012.64 1012.19 1011.70 1011.16 1010.55 1009.87 1009.13 1008.34 1007.53 1006.72 1005.94 1005.23 1004.58 1004.02 1003.55 1003.14 1002.80 1002.50 1002.23 1001.97 1001.72 1001.48 1001.26 1001.06 1000.90 1000.79 1000.71 1000.69 1000.70 1000.73 1000.78 1000.82
1015.87 1015.85 1015.79 1015.66 1015.48 1015.24 1014.95 1014.62 1014.25 1013.87 1013.48 1013.07 1012.65 1012.20 1011.70 1011.15 1010.52 1009.82 1009.06 1008.24 1007.39 1006.54 1005.71 1004.94 1004.25 1003.64 1003.12 1002.70 1002.34 1002.04 1001.78 1001.55 1001.32 1001.11 1000.91 1000.72 1000.55 1000.43 1000.34 1000.30 1000.29 1000.33 1000.39 1000.48
1015.55 1015.57 1015.55 1015.48 1015.34 1015.15 1014.89 1014.60 1014.26 1013.90 1013.52 1013.12 1012.69 1012.23 1011.72 1011.15 1010.51 1009.79 1009.00 1008.15 1007.26 1006.37 1005.50 1004.68 1003.94 1003.29 1002.74 1002.30 1001.93 1001.64 1001.39 1001.18 1000.98 1000.79 1000.60 1000.43 1000.27 1000.14 1000.05 1000.01 1000.01 1000.06 1000.16 1000.29
1015.28 1015.34 1015.35 1015.32 1015.23 1015.08 1014.87 1014.61 1014.30 1013.96 1013.59 1013.19 1012.76 1012.29 1011.77 1011.18 1010.52 1009.78 1008.97 1008.09 1007.17 1006.24 1005.33 1004.48 1003.69 1003.01 1002.43 1001.96 1001.58 1001.28 1001.04 1000.83 1000.65 1000.48 1000.32 1000.16 1000.01 999.90 999.81 999.78 999.80 999.88 1000.02 1000.20
1015.04 1015.12 1015.17 1015.18 1015.13 1015.02 1014.85 1014.62 1014.34 1014.02 1013.67 1013.28 1012.85 1012.37 1011.84 1011.24 1010.57 1009.81 1008.98 1008.08 1007.13 1006.18 1005.24 1004.34 1003.52 1002.80 1002.18 1001.67 1001.27 1000.95 1000.69 1000.48 1000.31 1000.14 999.99 999.84 999.72 999.62 999.56 999.55 999.61 999.73 999.91 1000.15
1014.80 1014.90 1014.98 1015.02 1015.01 1014.94 1014.81 1014.62 1014.37 1014.08 1013.75 1013.37 1012.95 1012.48 1011.94 1011.34 1010.65 1009.88 1009.03 1008.12 1007.16 1006.18 1005.21 1004.28 1003.42 1002.65 1001.99 1001.44 1000.98 1000.62 1000.33 1000.10 999.90 999.73 999.57 999.44 999.32 999.25 999.22 999.25 999.34 999.51 999.75 1000.04
1014.55 1014.66 1014.77 1014.84 1014.86 1014.83 1014.74 1014.59 1014.39 1014.13 1013.83 1013.47 1013.06 1012.60 1012.06 1011.45 1010.76 1009.99 1009.13 1008.21 1007.23 1006.23 1005.24 1004.28 1003.38 1002.56 1001.84 1001.23 1000.72 1000.29 999.95 999.67 999.43 999.23 999.06 998.92 998.82 998.76 998.76 998.82 998.96 999.18 999.46 999.81
1014.29 1014.42 1014.54 1014.64 1014.70 1014.71 1014.66 1014.55 1014.39 1014.17 1013.89 1013.56 1013.17 1012.72 1012.19 1011.59 1010.90 1010.12 1009.27 1008.34 1007.35 1006.34 1005.32 1004.33 1003.39 1002.53 1001.75 1001.06 1000.48 999.98 999.56 999.21 998.92 998.68 998.48 998.32 998.22 998.18 998.20 998.30 998.47 998.72 999.05 999.42
1014.03 1014.18 1014.32 1014.45 1014.53 1014.57 1014.56 1014.49 1014.36 1014.18 1013.93 1013.63 1013.26 1012.83 1012.31 1011.72 1011.04 1010.27 1009.41 1008.48 1007.50 1006.48 1005.45 1004.44 1003.47 1002.55 1001.72 1000.97 1000.31 999.74 999.24 998.82 998.46 998.17 997.93 997.75 997.63 997.59 997.63 997.74 997.94 998.22 998.56 998.96
1013.79 1013.96 1014.12 1014.26 1014.37 1014.43 1014.45 1014.41 1014.31 1014.16 1013.95 1013.67 1013.33 1012.91 1012.42 1011.84 1011.17 1010.41 1009.57 1008.66 1007.68 1006.67 1005.64 1004.62 1003.62 1002.68 1001.80 1001.00 1000.28 999.63 999.07 998.58 998.16 997.81 997.53 997.32 997.19 997.14 997.17 997.29 997.50 997.78 998.13 998.53
1013.59 1013.78 1013.95 1014.10 1014.22 1014.30 1014.33 1014.31 1014.24 1014.11 1013.93 1013.68 1013.36 1012.97 1012.50 1011.95 1011.30 1010.57 1009.75 1008.86 1007.91 1006.92 1005.91 1004.89 1003.90 1002.95 1002.05 1001.21 1000.45 999.76 999.14 998.60 998.13 997.74 997.42 997.18 997.03 996.96 996.99 997.10 997.30 997.57 997.90 998.28
1013.42 1013.62 1013.79 1013.95 1014.07 1014.16 1014.20 1014.20 1014.14 1014.04 1013.88 1013.67 1013.38 1013.02 1012.58 1012.05 1011.44 1010.75 1009.97 1009.12 1008.21 1007.25 1006.28 1005.30 1004.33 1003.39 1002.50 1001.66 1000.88 1000.18 999.54 998.97 998.47 998.05 997.71 997.45 997.27 997.19 997.19 997.29 997.46 997.71 998.01 998.34
1013.24 1013.45 1013.63 1013.79 1013.91 1014.00 1014.05 1014.06 1014.03 1013.95 1013.82 1013.64 1013.38 1013.06 1012.66 1012.18 1011.62 1010.97 1010.25 1009.45 1008.59 1007.70 1006.78 1005.85 1004.93 1004.03 1003.17 1002.36 1001.61 1000.91 1000.27 999.71 999.21 998.78 998.43 998.16 997.97 997.87 997.86 997.92 998.06 998.27 998.52 998.81
1013.01 1013.24 1013.43 1013.59 1013.72 1013.81 1013.87 1013.90 1013.89 1013.84 1013.75 1013.60 1013.40 1013.12 1012.78 1012.35 1011.84 1011.26 1010.60 1009.87 1009.08 1008.25 1007.40 1006.54 1005.69 1004.86 1004.06 1003.30 1002.59 1001.93 1001.33 1000.79 1000.32 999.91 999.57 999.30 999.11 999.00 998.96 999.00 999.10 999.26 999.46 999.69
1012.69 1012.93 1013.14 1013.32 1013.46 1013.57 1013.65 1013.71 1013.73 1013.72 1013.67 1013.58 1013.42 1013.21 1012.93 1012.57 1012.13 1011.61 1011.02 1010.37 1009.66 1008.91 1008.14 1007.36 1006.59 1005.83 1005.11 1004.42 1003.78 1003.18 1002.64 1002.15 1001.72 1001.34 1001.03 1000.78 1000.60 1000.48 1000.43 1000.44 1000.51 1000.62 1000.76 1000.93
1012.21 1012.50 1012.74 1012.95 1013.12 1013.26 1013.38 1013.47 1013.54 1013.58 1013.59 1013.56 1013.47 1013.32 1013.10 1012.82 1012.45 1012.01 1011.50 1010.92 1010.30 1009.63 1008.95 1008.25 1007.57 1006.90 1006.25 1005.65 1005.09 1004.57 1004.09 1003.67 1003.29 1002.97 1002.69 1002.47 1002.31 1002.19 1002.13 1002.12 1002.15 1002.21 1002.30 1002.41
Thickness
5727 5729 5724 5716 5714 5712 5700 5691 5676 5673 5667 5663 5662 5660 5656 5652 5646 5641 5635 5631 5625 5618 5613 5607 5602 5597 5593 5588 5585 5580 5575 5571 5567 5565 5563 5561 5559 5559 5559 5560 5561 5563 5565 5569
5717 5724 5718 5707 5706 5703 5697 5690 5681 5671 5660 5663 5660 5654 5648 5642 5636 5630 5625 5620 5615 5609 5602 5596 5591 5586 5582 5577 5573 5568 5563 5560 5557 5553 5550 5548 5547 5546 5546 5546 5547 5547 5549 5552
5704 5716 5710 5685 5692 5691 5684 5678 5671 5656 5653 5656 5650 5646 5639 5634 5628 5621 5615 5610 5604 5598 5591 5586 5581 5576 5570 5566 5563 5558 5553 5551 5547 5544 5541 5540 5539 5538 5537 5537 5537 5537 5538 5540
5698 5697 5679 5685 5700 5693 5679 5668 5665 5658 5653 5649 5643 5640 5635 5627 5619 5613 5607 5602 5595 5588 5582 5577 5571 5565 5560 5556 5552 5547 5544 5541 5539 5536 5534 5533 5532 5531 5531 5531 5530 5531 5532 5533
5686 5681 5679 5688 5691 5687 5674 5661 5661 5654 5649 5645 5640 5633 5627 5623 5616 5607 5600 5593 5585 5578 5572 5566 5559 5554 5549 5545 5541 5538 5535 5532 5530 5528 5527 5526 5525 5524 5524 5524 5525 5525 5527 5528
5685 5678 5669 5674 5689 5692 5676 5652 5655 5650 5642 5636 5627 5610 5610 5614 5606 5598 5590 5582 5574 5568 5561 5555 5550 5544 5538 5535 5531 5528 5526 5524 5522 5520 5518 5518 5518 5518 5519 5519 5520 5521 5522 5523
5677 5671 5668 5681 5687 5678 5648 5641 5649 5644 5635 5627 5614 5606 5605 5602 5595 5588 5580 5572 5565 5557 5550 5544 5540 5534 5528 5524 5520 5518 5516 5514 5513 5511 5510 5510 5510 5511 5512 5512 5513 5515 5516 5519
5669 5660 5661 5681 5676 5658 5647 5649 5644 5638 5631 5622 5614 5608 5601 5594 5586 5578 5570 5563 5555 5547 5541 5536 5530 5523 5519 5515 5513 5510 5507 5505 5504 5503 5502 5505 5504 5504 5505 5506 5506 5508 5510 5512
5674 5667 5674 5677 5669 5663 5655 5646 5641 5633 5627 5618 5609 5601 5593 5585 5576 5568 5560 5553 5546 5539 5533 5527 5521 5515 5510 5508 5505 5502 5499 5497 5496 5495 5495 5495 5495 5496 5498 5499 5500 5503 5504 5506
5678 5676 5676 5672 5668 5663 5657 5648 5641 5633 5624 5614 5603 5594 5584 5575 5567 5559 5552 5545 5539 5532 5525 5520 5515 5509 5503 5500 5497 5494 5491 5489 5488 5488 5488 5488 5488 5489 5491 5493 5495 5498 5500 5502
5674 5676 5673 5669 5664 5660 5654 5646 5637 5628 5619 5608 5597 5586 5577 5567 5559 5552 5545 5539 5532 5524 5518 5514 5509 5504 5499 5494 5490 5487 5485 5483 5482 5482 5482 5482 5482 5484 5486 5489 5492 5494 5497 5499
5668 5670 5663 5660 5661 5657 5648 5639 5630 5621 5611 5601 5590 5579 5571 5561 5554 5546 5539 5533 5527 5520 5514 5509 5504 5499 5494 5490 5485 5482 5480 5479 5478 5477 5477 5478 5478 5480 5483 5486 5489 5492 5495 5497
5680 5678 5670 5665 5660 5653 5644 5635 5626 5615 5604 5593 5585 5575 5566 5557 5550 5542 5535 5529 5523 5516 5510 5505 5501 5496 5492 5488 5484 5480 5478 5477 5475 5475 5474 5474 5475 5476 5478 5482 5485 5489 5492 5495
5686 5679 5668 5662 5654 5648 5640 5631 5621 5610 5600 5590 5581 5572 5562 5553 5546 5538 5532 5526 5520 5514 5509 5504 5500 5496 5493 5489 5485 5482 5479 5478 5476 5474 5473 5472 5473 5474 5476 5478 5481 5485 5488 5492
5682 5675 5665 5660 5652 5643 5635 5625 5614 5603 5595 5587 5577 5567 5559 5550 5542 5535 5530 5525 5519 5514 5510 5505 5501 5498 5495 5491 5487 5484 5481 5479 5478 5476 5475 5474 5474 5474 5476 5478 5480 5483 5485 5488
5678 5672 5664 5655 5645 5637 5628 5619 5607 5598 5590 5581 5573 5564 5555 5547 5539 5533 5528 5524 5518 5513 5510 5506 5503 5500 5497 5494 5491 5488 5486 5485 5483 5480 5479 5478 5477 5476 5477 5479 5481 5483 5485 5487
5672 5663 5656 5647 5640 5632 5622 5613 5603 5594 5586 5578 5569 5561 5553 5545 5538 5533 5528 5523 5518 5514 5510 5507 5504 5503 5501 5499 5496 5493 5491 5488 5488 5485 5483 5481 5481 5480 5481 5482 5484 5485 5487 5489
5671 5662 5653 5644 5634 5626 5618 5610 5601 5592 5583 5575 5567 5559 5551 5543 5536 5531 5528 5524 5521 5518 5515 5510 5507 5506 5506 5504 5502 5499 5496 5494 5491 5489 5487 5486 5485 5485 5485 5486 5488 5489 5490 5491
5666 5657 5649 5642 5633 5624 5615 5607 5598 5590 5581 5573 5564 5556 5548 5541 5535 5531 5528 5525 5522 5520 5517 5514 5511 5511 5511 5510 5509 5506 5504 5501 5499 5497 5494 5493 5491 5491 5490 5491 5492 5493 5495 5495
5661 5654 5646 5638 5631 5622 5613 5605 5597 5588 5579 5570 5562 5555 5548 5542 5537 5533 5530 5526 5522 5518 5516 5516 5516 5516 5516 5517 5517 5514 5512 5510 5507 5505 5502 5501 5499 5498 5498 5498 5498 5499 5500 5502
5656 5649 5642 5634 5627 5620 5612 5603 5594 5585 5576 5568 5560 5553 5546 5541 5537 5533 5532 5531 5528 5523 5521 5522 5522 5521 5521 5521 5523 5522 5521 5519 5517 5514 5511 5510 5508 5507 5506 5506 5507 5508 5509 5511
5651 5644 5638 5631 5623 5615 5608 5599 5591 5582 5574 5567 5560 5552 5546 5541 5538 5535 5532 5529 5528 5526 5526 5527 5526 5525 5526 5529 5530 5530 5530 5528 5527 5524 5522 5520 5518 5517 5517 5517 5517 5518 5519 5520
5646 5641 5634 5627 5619 5612 5604 5596 5588 5580 5572 5564 5557 5551 5544 5539 5536 5534 5534 5533 5531 5529 5530 5530 5529 5531 5534 5537 5537 5537 5537 5537 5535 5534 5532 5531 5530 5529 5528 5527 5528 5528 5529 5530
5642 5637 5630 5623 5616 5608 5599 5591 5584 5576 5569 5562 5555 5549 5543 5539 5536 5534 5532 5533 5532 5532 5533 5532 5533 5536 5539 5541 5541 5542 5542 5543 5543 5542 5542 5541 5540 5540 5539 5538 5538 5538 5539 5541
5639 5633 5626 5618 5610 5602 5595 5588 5580 5573 5566 5559 5553 5548 5542 5537 5534 5533 5533 5533 5534 5534 5535 5536 5537 5539 5542 5543 5544 5545 5546 5546 5547 5548 5549 5549 5549 5548 5548 5548 5548 5548 5549 5550
5634 5627 5620 5613 5605 5598 5591 5583 5575 5568 5562 5555 5550 5546 5541 5537 5534 5532 5532 5533 5534 5534 5535 5536 5537 5539 5541 5542 5543 5545 5547 5549 5551 5552 5552 5554 5555 5555 5556 5556 5556 5555 5556 5557
5629 5622 5614 5606 5600 5594 5587 5579 5571 5565 5559 5552 5547 5543 5539 5535 5533 5531 5531 5531 5532 5532 5533 5533 5535 5536 5538 5540 5542 5544 5546 5548 5550 5552 5553 5555 5557 5558 5558 5559 5559 5559 5559 5560